time, Switch, Flow(0), Analog(2)
yyyy/mm/dd HH:MM:SS.fff, True=FILTERED|False=TOTAL, L/min, V
2023/06/30 10:00:03.874, True, 4.036, 0.150072
2023/06/30 10:00:04.378, True, 2.321, 0.153964
2023/06/30 10:00:04.874, True, 1.685, 0.150988
2023/06/30 10:00:05.378, True, 0.995, 0.150912
2023/06/30 10:00:05.882, True, 0.995, 0.151751
2023/06/30 10:00:06.378, True, 1.011, 0.151064
2023/06/30 10:00:06.882, True, 0.995, 0.151751
2023/06/30 10:00:07.386, True, 0.995, 0.149996
2023/06/30 10:00:07.890, True, 0.995, 0.150607
2023/06/30 10:00:08.386, True, 1.010, 0.148470
2023/06/30 10:00:08.890, True, 0.995, 0.152743
2023/06/30 10:00:09.394, True, 0.995, 0.151904
2023/06/30 10:00:09.890, True, 1.011, 0.152743
2023/06/30 10:00:10.394, True, 1.326, 0.150530
2023/06/30 10:00:10.890, True, 0.674, 0.150607
2023/06/30 10:00:11.394, True, 1.326, 0.151064
2023/06/30 10:00:11.898, True, 0.995, 0.153124
2023/06/30 10:00:12.394, True, 1.011, 0.151217
2023/06/30 10:00:12.898, True, 0.995, 0.148699
2023/06/30 10:00:13.402, True, 0.995, 0.149996
2023/06/30 10:00:13.898, True, 1.011, 0.151904
2023/06/30 10:00:14.402, True, 0.995, 0.150607
2023/06/30 10:00:14.906, True, 0.995, 0.147707
2023/06/30 10:00:15.410, True, 0.663, 0.149996
2023/06/30 10:00:15.906, True, 1.011, 0.150912
2023/06/30 10:00:16.410, True, 0.995, 0.152438
2023/06/30 10:00:16.914, True, 0.996, 0.151217
2023/06/30 10:00:17.410, True, 1.011, 0.151827
2023/06/30 10:00:17.914, True, 0.993, 0.149081
2023/06/30 10:00:18.418, True, 1.326, 0.150988
2023/06/30 10:00:18.914, True, 1.011, 0.151141
2023/06/30 10:00:19.418, True, 0.995, 0.150454
2023/06/30 10:00:19.922, True, 0.995, 0.150301
2023/06/30 10:00:20.418, True, 1.011, 0.150607
2023/06/30 10:00:20.922, True, 0.995, 0.151064
2023/06/30 10:00:21.426, True, 1.326, 0.149462
2023/06/30 10:00:21.922, True, 1.011, 0.149538
2023/06/30 10:00:22.426, True, 0.995, 0.150759
2023/06/30 10:00:22.922, True, 1.011, 0.150988
2023/06/30 10:00:23.426, True, 0.995, 0.151446
2023/06/30 10:00:23.930, True, 0.995, 0.151217
2023/06/30 10:00:24.426, True, 1.012, 0.150988
2023/06/30 10:00:24.930, True, 0.993, 0.150301
2023/06/30 10:00:25.434, True, 0.995, 0.150607
2023/06/30 10:00:25.930, True, 1.011, 0.151522
2023/06/30 10:00:26.434, True, 0.995, 0.149615
2023/06/30 10:00:26.938, True, 0.995, 0.148699
2023/06/30 10:00:27.434, True, 1.011, 0.151980
2023/06/30 10:00:27.938, True, 0.995, 0.151217
2023/06/30 10:00:28.442, True, 0.995, 0.149462
2023/06/30 10:00:28.938, True, 1.011, 0.151217
2023/06/30 10:00:29.442, True, 0.995, 0.150072
2023/06/30 10:00:29.946, True, 0.995, 0.150530
2023/06/30 10:00:30.442, True, 1.011, 0.149767
2023/06/30 10:00:30.946, True, 0.995, 0.150530
2023/06/30 10:00:31.450, True, 0.995, 0.149920
2023/06/30 10:00:31.946, True, 0.674, 0.151980
2023/06/30 10:00:32.450, True, 0.995, 0.149310
2023/06/30 10:00:32.954, True, 0.995, 0.150683
2023/06/30 10:00:33.449, True, 1.011, 0.151598
2023/06/30 10:00:33.954, True, 1.326, 0.150759
2023/06/30 10:00:34.458, True, 0.995, 0.153735
2023/06/30 10:00:34.954, True, 1.012, 0.150607
2023/06/30 10:00:35.458, True, 0.994, 0.150835
2023/06/30 10:00:35.962, True, 0.995, 0.150988
2023/06/30 10:00:36.458, True, 1.011, 0.149844
2023/06/30 10:00:36.962, True, 0.995, 0.151217
2023/06/30 10:00:37.466, True, 0.995, 0.151675
2023/06/30 10:00:37.962, True, 1.011, 0.151369
2023/06/30 10:00:38.466, True, 0.995, 0.147326
2023/06/30 10:00:38.970, True, 0.995, 0.149615
2023/06/30 10:00:39.466, True, 1.011, 0.149310
2023/06/30 10:00:39.970, True, 0.995, 0.151217
2023/06/30 10:00:40.474, True, 0.995, 0.151293
2023/06/30 10:00:40.970, True, 1.011, 0.151064
2023/06/30 10:00:41.474, True, 0.995, 0.150988
2023/06/30 10:00:41.970, True, 1.011, 0.151675
2023/06/30 10:00:42.474, True, 0.995, 0.150301
2023/06/30 10:00:42.978, True, 0.995, 0.149615
2023/06/30 10:00:43.474, True, 1.348, 0.150530
2023/06/30 10:00:43.978, True, 0.995, 0.152972
2023/06/30 10:00:44.482, True, 0.995, 0.150835
2023/06/30 10:00:44.978, True, 1.011, 0.149844
2023/06/30 10:00:45.482, True, 0.995, 0.151675
2023/06/30 10:00:45.986, True, 0.995, 0.151217
2023/06/30 10:00:46.482, True, 1.011, 0.150759
2023/06/30 10:00:46.986, True, 0.995, 0.149081
2023/06/30 10:00:47.490, True, 0.995, 0.151598
2023/06/30 10:00:47.986, True, 1.012, 0.150759
2023/06/30 10:00:48.490, True, 0.993, 0.150530
2023/06/30 10:00:48.994, True, 0.995, 0.150072
2023/06/30 10:00:49.490, True, 1.011, 0.151598
2023/06/30 10:00:49.994, True, 1.326, 0.151064
2023/06/30 10:00:50.498, True, 0.995, 0.150759
2023/06/30 10:00:51.002, True, 0.995, 0.149462
2023/06/30 10:00:51.498, True, 1.011, 0.150149
2023/06/30 10:00:52.002, True, 0.995, 0.149767
2023/06/30 10:00:52.506, True, 0.995, 0.149157
2023/06/30 10:00:53.002, True, 1.011, 0.150072
2023/06/30 10:00:53.506, True, 0.995, 0.151446
2023/06/30 10:00:54.010, True, 0.996, 0.152056
2023/06/30 10:00:54.506, True, 1.009, 0.149920
2023/06/30 10:00:55.010, True, 0.995, 0.150530
2023/06/30 10:00:55.514, True, 0.996, 0.150225
2023/06/30 10:00:56.010, True, 1.011, 0.151751
2023/06/30 10:00:56.514, True, 0.994, 0.150988
2023/06/30 10:00:57.018, True, 0.995, 0.153353
2023/06/30 10:00:57.522, True, 0.995, 0.152209
2023/06/30 10:00:58.018, True, 1.012, 0.150378
2023/06/30 10:00:58.522, True, 0.993, 0.153429
2023/06/30 10:00:59.026, True, 0.995, 0.155032
2023/06/30 10:00:59.522, True, 1.011, 0.152819
2023/06/30 10:01:00.026, True, 0.995, 0.151827
2023/06/30 10:01:00.530, True, 0.994, 0.151827
2023/06/30 10:01:01.026, True, 1.013, 0.151751
2023/06/30 10:01:01.530, True, 1.324, 0.153277
2023/06/30 10:01:02.034, True, 0.995, 0.152056
2023/06/30 10:01:02.530, True, 1.012, 0.152743
2023/06/30 10:01:03.034, True, 0.994, 0.152285
2023/06/30 10:01:03.538, True, 0.996, 0.152743
2023/06/30 10:01:04.034, True, 1.009, 0.151293
2023/06/30 10:01:04.538, True, 0.995, 0.154650
2023/06/30 10:01:05.042, True, 0.996, 0.151751
2023/06/30 10:01:05.538, True, 1.009, 0.153735
2023/06/30 10:01:06.042, True, 0.996, 0.154574
2023/06/30 10:01:06.538, True, 1.010, 0.153887
2023/06/30 10:01:07.042, True, 0.994, 0.154955
2023/06/30 10:01:07.546, True, 0.995, 0.153658
2023/06/30 10:01:08.050, True, 0.995, 0.153201
2023/06/30 10:01:08.546, True, 1.011, 0.152895
2023/06/30 10:01:09.050, True, 0.995, 0.154803
2023/06/30 10:01:09.554, True, 0.995, 0.152590
2023/06/30 10:01:10.050, True, 1.011, 0.154345
2023/06/30 10:01:10.554, True, 0.995, 0.153811
2023/06/30 10:01:11.050, True, 1.011, 0.154574
2023/06/30 10:01:11.554, True, 0.994, 0.154116
2023/06/30 10:01:12.058, True, 0.995, 0.157092
2023/06/30 10:01:12.554, True, 1.011, 0.155489
2023/06/30 10:01:13.058, True, 0.995, 0.155566
2023/06/30 10:01:13.562, True, 0.995, 0.154345
2023/06/30 10:01:14.058, True, 1.011, 0.153658
2023/06/30 10:01:14.562, True, 0.995, 0.154726
2023/06/30 10:01:15.066, True, 0.995, 0.155184
2023/06/30 10:01:15.562, True, 0.673, 0.156939
2023/06/30 10:01:16.066, True, 0.997, 0.155337
2023/06/30 10:01:16.570, True, 1.325, 0.154269
2023/06/30 10:01:17.066, True, 0.674, 0.154421
2023/06/30 10:01:17.570, True, 0.993, 0.157015
2023/06/30 10:01:18.074, True, 1.326, 0.155108
2023/06/30 10:01:18.570, True, 1.011, 0.153887
2023/06/30 10:01:19.074, True, 0.995, 0.154803
2023/06/30 10:01:19.578, True, 0.995, 0.155642
2023/06/30 10:01:20.074, True, 1.011, 0.154650
2023/06/30 10:01:20.578, True, 0.995, 0.157092
2023/06/30 10:01:21.081, True, 0.995, 0.157397
2023/06/30 10:01:21.578, True, 1.011, 0.154574
2023/06/30 10:01:22.082, True, 0.995, 0.155261
2023/06/30 10:01:22.586, True, 0.995, 0.155947
2023/06/30 10:01:23.082, True, 1.011, 0.157321
2023/06/30 10:01:23.586, True, 1.326, 0.158007
2023/06/30 10:01:24.090, True, 0.995, 0.155337
2023/06/30 10:01:24.586, True, 1.011, 0.155108
2023/06/30 10:01:25.090, True, 0.997, 0.157321
2023/06/30 10:01:25.594, True, 0.993, 0.157244
2023/06/30 10:01:26.090, True, 1.011, 0.156634
2023/06/30 10:01:26.594, True, 0.995, 0.156405
2023/06/30 10:01:27.090, True, 1.011, 0.157397
2023/06/30 10:01:27.594, True, 0.994, 0.156176
2023/06/30 10:01:28.098, True, 0.995, 0.157473
2023/06/30 10:01:28.594, True, 1.011, 0.157092
2023/06/30 10:01:29.098, True, 0.994, 0.156405
2023/06/30 10:01:29.602, True, 0.995, 0.156405
2023/06/30 10:01:30.098, True, 1.010, 0.156481
2023/06/30 10:01:30.602, True, 0.995, 0.157092
2023/06/30 10:01:31.106, True, 0.996, 0.156481
2023/06/30 10:01:31.602, True, 1.010, 0.156863
2023/06/30 10:01:32.106, True, 0.995, 0.154879
2023/06/30 10:01:32.611, True, 0.995, 0.156863
2023/06/30 10:01:33.106, True, 1.011, 0.155947
2023/06/30 10:01:33.610, True, 0.995, 0.158312
2023/06/30 10:01:34.114, True, 0.996, 0.157397
2023/06/30 10:01:34.610, True, 1.010, 0.155337
2023/06/30 10:01:35.114, True, 0.995, 0.157702
2023/06/30 10:01:35.618, True, 0.663, 0.157931
2023/06/30 10:01:36.114, True, 1.011, 0.156252
2023/06/30 10:01:36.618, True, 0.995, 0.156939
2023/06/30 10:01:37.122, True, 0.995, 0.157702
2023/06/30 10:01:37.618, True, 1.011, 0.156863
2023/06/30 10:01:38.122, True, 0.995, 0.154650
2023/06/30 10:01:38.618, True, 1.011, 0.157397
2023/06/30 10:01:39.122, True, 0.994, 0.156329
2023/06/30 10:01:39.626, True, 0.995, 0.156786
2023/06/30 10:01:40.122, True, 1.011, 0.157397
2023/06/30 10:01:40.626, True, 0.663, 0.157626
2023/06/30 10:01:41.130, True, 1.326, 0.158618
2023/06/30 10:01:41.634, True, 0.995, 0.157473
2023/06/30 10:01:42.130, True, 0.674, 0.156863
2023/06/30 10:01:42.634, True, 0.995, 0.155718
2023/06/30 10:01:43.138, True, 0.995, 0.155718
2023/06/30 10:01:43.634, True, 1.011, 0.154955
2023/06/30 10:01:44.138, True, 0.995, 0.156863
2023/06/30 10:01:44.642, True, 0.663, 0.157397
2023/06/30 10:01:45.138, True, 1.011, 0.157778
2023/06/30 10:01:45.641, True, 0.995, 0.158007
2023/06/30 10:01:46.138, True, 1.011, 0.157015
2023/06/30 10:01:46.642, True, 0.995, 0.158083
2023/06/30 10:01:47.146, True, 0.995, 0.156481
2023/06/30 10:01:47.642, True, 1.011, 0.157626
2023/06/30 10:01:48.146, True, 0.995, 0.157244
2023/06/30 10:01:48.650, True, 0.995, 0.159228
2023/06/30 10:01:49.146, True, 1.348, 0.157778
2023/06/30 10:01:49.650, True, 0.995, 0.157931
2023/06/30 10:01:50.154, True, 0.995, 0.157397
2023/06/30 10:01:50.650, True, 1.010, 0.157931
2023/06/30 10:01:51.154, True, 0.663, 0.157168
2023/06/30 10:01:51.658, True, 0.995, 0.157168
2023/06/30 10:01:52.154, True, 1.013, 0.158389
2023/06/30 10:01:52.658, True, 0.994, 0.156939
2023/06/30 10:01:53.162, True, 0.994, 0.157321
2023/06/30 10:01:53.666, True, 0.995, 0.158312
2023/06/30 10:01:54.162, True, 0.674, 0.158999
2023/06/30 10:01:54.666, True, 0.995, 0.159152
2023/06/30 10:01:55.162, True, 1.011, 0.156634
2023/06/30 10:01:55.666, True, 0.995, 0.158389
2023/06/30 10:01:56.170, True, 0.995, 0.163195
2023/06/30 10:01:56.667, True, 1.011, 0.158389
2023/06/30 10:01:57.170, True, 0.995, 0.158465
2023/06/30 10:01:57.674, True, 0.995, 0.156405
2023/06/30 10:01:58.170, True, 1.011, 0.157855
2023/06/30 10:01:58.674, True, 0.995, 0.155795
2023/06/30 10:01:59.178, True, 0.995, 0.156329
2023/06/30 10:01:59.674, True, 1.011, 0.159991
2023/06/30 10:02:00.178, True, 0.995, 0.158236
2023/06/30 10:02:00.682, True, 0.995, 0.158846
2023/06/30 10:02:01.178, True, 1.011, 0.158846
2023/06/30 10:02:01.682, True, 0.995, 0.158160
2023/06/30 10:02:02.186, True, 0.994, 0.158160
2023/06/30 10:02:02.682, True, 1.011, 0.155642
2023/06/30 10:02:03.186, True, 0.995, 0.157626
2023/06/30 10:02:03.690, True, 0.995, 0.155489
2023/06/30 10:02:04.186, True, 1.011, 0.156939
2023/06/30 10:02:04.690, True, 1.326, 0.157855
2023/06/30 10:02:05.194, True, 0.996, 0.157473
2023/06/30 10:02:05.690, True, 1.010, 0.156786
2023/06/30 10:02:06.194, True, 0.995, 0.156939
2023/06/30 10:02:06.698, True, 0.995, 0.156481
2023/06/30 10:02:07.194, True, 1.011, 0.157702
2023/06/30 10:02:07.698, True, 0.996, 0.159762
2023/06/30 10:02:08.202, True, 1.327, 0.156939
2023/06/30 10:02:08.698, True, 1.009, 0.158618
2023/06/30 10:02:09.202, True, 0.995, 0.157626
2023/06/30 10:02:09.706, True, 0.995, 0.156100
2023/06/30 10:02:10.202, True, 1.011, 0.154421
2023/06/30 10:02:10.706, True, 0.995, 0.156863
2023/06/30 10:02:11.210, True, 0.995, 0.157549
2023/06/30 10:02:11.706, True, 1.011, 0.157244
2023/06/30 10:02:12.210, True, 0.995, 0.156939
2023/06/30 10:02:12.714, True, 0.995, 0.157626
2023/06/30 10:02:13.218, True, 0.995, 0.157626
2023/06/30 10:02:13.714, True, 1.012, 0.157321
2023/06/30 10:02:14.218, True, 0.993, 0.158160
2023/06/30 10:02:14.714, True, 1.011, 0.155337
2023/06/30 10:02:15.218, True, 0.663, 0.157778
2023/06/30 10:02:15.722, True, 0.995, 0.155718
2023/06/30 10:02:16.218, True, 1.011, 0.158236
2023/06/30 10:02:16.722, True, 0.995, 0.159457
2023/06/30 10:02:17.226, True, 0.996, 0.156863
2023/06/30 10:02:17.722, True, 1.347, 0.158236
2023/06/30 10:02:18.226, True, 0.995, 0.157168
2023/06/30 10:02:18.730, True, 0.995, 0.159075
2023/06/30 10:02:19.226, True, 1.012, 0.155261
2023/06/30 10:02:19.730, True, 0.994, 0.155947
2023/06/30 10:02:20.234, True, 0.994, 0.156786
2023/06/30 10:02:20.730, True, 1.011, 0.157015
2023/06/30 10:02:21.234, True, 0.995, 0.156558
2023/06/30 10:02:21.738, True, 0.995, 0.156710
2023/06/30 10:02:22.234, True, 1.011, 0.157549
2023/06/30 10:02:22.738, True, 0.995, 0.156252
2023/06/30 10:02:23.242, True, 0.995, 0.156329
2023/06/30 10:02:23.738, True, 1.011, 0.156863
2023/06/30 10:02:24.241, True, 0.663, 0.156558
2023/06/30 10:02:24.746, True, 1.329, 0.157931
2023/06/30 10:02:25.242, True, 0.672, 0.156786
2023/06/30 10:02:25.746, True, 0.995, 0.155489
2023/06/30 10:02:26.250, True, 0.996, 0.158236
2023/06/30 10:02:26.746, True, 1.010, 0.158160
2023/06/30 10:02:27.249, True, 0.996, 0.157473
2023/06/30 10:02:27.754, True, 0.993, 0.157702
2023/06/30 10:02:28.250, True, 1.012, 0.156558
2023/06/30 10:02:28.754, True, 0.994, 0.156023
2023/06/30 10:02:29.258, True, 0.994, 0.158083
2023/06/30 10:02:29.762, True, 0.997, 0.156558
2023/06/30 10:02:30.258, True, 1.011, 0.158999
2023/06/30 10:02:30.762, True, 0.993, 0.158618
2023/06/30 10:02:31.266, True, 0.995, 0.156863
2023/06/30 10:02:31.762, True, 1.012, 0.156405
2023/06/30 10:02:32.266, True, 0.993, 0.157626
2023/06/30 10:02:32.770, True, 0.995, 0.157168
2023/06/30 10:02:33.266, True, 1.011, 0.158694
2023/06/30 10:02:33.770, True, 0.995, 0.157549
2023/06/30 10:02:34.274, True, 0.663, 0.154421
2023/06/30 10:02:34.770, True, 1.010, 0.156481
2023/06/30 10:02:35.274, True, 0.996, 0.156405
2023/06/30 10:02:35.778, True, 0.994, 0.158007
2023/06/30 10:02:36.274, True, 1.010, 0.157015
2023/06/30 10:02:36.778, True, 0.995, 0.156252
2023/06/30 10:02:37.282, True, 0.995, 0.158389
2023/06/30 10:02:37.778, True, 1.011, 0.154879
2023/06/30 10:02:38.282, True, 0.995, 0.156405
2023/06/30 10:02:38.786, True, 0.995, 0.157397
2023/06/30 10:02:39.282, True, 0.674, 0.155032
2023/06/30 10:02:39.786, True, 0.995, 0.157626
2023/06/30 10:02:40.290, True, 0.995, 0.156405
2023/06/30 10:02:40.786, True, 1.011, 0.154269
2023/06/30 10:02:41.290, True, 0.995, 0.156634
2023/06/30 10:02:41.794, True, 0.995, 0.155413
2023/06/30 10:02:42.290, True, 1.011, 0.154650
2023/06/30 10:02:42.794, True, 0.995, 0.157473
2023/06/30 10:02:43.298, True, 0.995, 0.158770
2023/06/30 10:02:43.794, True, 1.011, 0.158770
2023/06/30 10:02:44.298, True, 0.995, 0.156634
2023/06/30 10:02:44.802, True, 0.663, 0.155642
2023/06/30 10:02:45.298, True, 1.013, 0.158618
2023/06/30 10:02:45.802, True, 0.993, 0.156481
2023/06/30 10:02:46.306, True, 0.995, 0.155795
2023/06/30 10:02:46.802, True, 1.010, 0.156481
2023/06/30 10:02:47.306, True, 0.995, 0.159228
2023/06/30 10:02:47.810, True, 0.995, 0.155947
2023/06/30 10:02:48.306, True, 1.011, 0.155489
2023/06/30 10:02:48.810, True, 0.995, 0.156329
2023/06/30 10:02:49.314, True, 0.995, 0.155337
2023/06/30 10:02:49.810, True, 1.011, 0.158236
2023/06/30 10:02:50.314, True, 0.995, 0.155642
2023/06/30 10:02:50.818, True, 0.995, 0.156481
2023/06/30 10:02:51.314, True, 0.674, 0.155871
2023/06/30 10:02:51.818, True, 0.995, 0.157702
2023/06/30 10:02:52.314, True, 1.010, 0.156863
2023/06/30 10:02:52.819, True, 0.995, 0.155261
2023/06/30 10:02:53.322, True, 0.995, 0.156634
2023/06/30 10:02:53.818, True, 1.011, 0.157702
2023/06/30 10:02:54.322, True, 0.995, 0.155871
2023/06/30 10:02:54.826, True, 0.995, 0.156863
2023/06/30 10:02:55.322, True, 1.011, 0.156023
2023/06/30 10:02:55.826, True, 0.995, 0.157321
2023/06/30 10:02:56.330, True, 0.995, 0.156786
2023/06/30 10:02:56.826, True, 1.011, 0.157473
2023/06/30 10:02:57.330, True, 0.994, 0.157473
2023/06/30 10:02:57.834, True, 0.995, 0.157931
2023/06/30 10:02:58.330, True, 1.011, 0.158083
2023/06/30 10:02:58.834, True, 0.995, 0.156634
2023/06/30 10:02:59.338, True, 0.995, 0.156481
2023/06/30 10:02:59.834, True, 1.011, 0.155261
2023/06/30 10:03:00.338, True, 0.994, 0.156329
2023/06/30 10:03:00.834, True, 1.011, 0.156100
2023/06/30 10:03:01.338, True, 0.996, 0.156176
2023/06/30 10:03:01.842, True, 0.993, 0.158541
2023/06/30 10:03:02.338, True, 1.011, 0.156176
2023/06/30 10:03:02.842, True, 0.995, 0.154498
2023/06/30 10:03:03.346, True, 0.995, 0.154574
2023/06/30 10:03:03.842, True, 1.011, 0.156405
2023/06/30 10:03:04.346, True, 0.994, 0.156863
2023/06/30 10:03:04.850, True, 0.996, 0.156786
2023/06/30 10:03:05.346, True, 1.012, 0.156786
2023/06/30 10:03:05.850, True, 0.993, 0.155261
2023/06/30 10:03:06.354, True, 0.995, 0.155642
2023/06/30 10:03:06.850, True, 0.674, 0.154498
2023/06/30 10:03:07.354, True, 0.996, 0.156329
2023/06/30 10:03:07.858, True, 0.993, 0.157321
2023/06/30 10:03:08.354, True, 1.011, 0.156710
2023/06/30 10:03:08.858, True, 0.996, 0.155413
2023/06/30 10:03:09.362, True, 0.994, 0.156329
2023/06/30 10:03:09.858, True, 1.011, 0.155947
2023/06/30 10:03:10.362, True, 0.995, 0.155413
2023/06/30 10:03:10.858, True, 1.012, 0.154726
2023/06/30 10:03:11.362, True, 0.993, 0.155184
2023/06/30 10:03:11.866, True, 0.995, 0.154040
2023/06/30 10:03:12.362, True, 1.011, 0.158694
2023/06/30 10:03:12.866, True, 1.326, 0.156634
2023/06/30 10:03:13.370, True, 0.995, 0.155947
2023/06/30 10:03:13.866, True, 1.011, 0.154574
2023/06/30 10:03:14.370, True, 0.663, 0.157015
2023/06/30 10:03:14.874, True, 0.995, 0.156558
2023/06/30 10:03:15.370, True, 1.011, 0.155642
2023/06/30 10:03:15.875, True, 0.995, 0.156863
2023/06/30 10:03:16.378, True, 0.995, 0.158618
2023/06/30 10:03:16.874, True, 1.011, 0.157626
2023/06/30 10:03:17.378, True, 0.995, 0.156786
2023/06/30 10:03:17.882, True, 0.995, 0.157397
2023/06/30 10:03:18.386, True, 0.995, 0.156176
2023/06/30 10:03:18.882, True, 1.011, 0.155642
2023/06/30 10:03:19.386, True, 0.994, 0.155032
2023/06/30 10:03:19.890, True, 0.995, 0.154498
2023/06/30 10:03:20.386, True, 1.011, 0.157092
2023/06/30 10:03:20.890, True, 0.996, 0.156023
2023/06/30 10:03:21.394, True, 0.993, 0.156786
2023/06/30 10:03:21.890, True, 1.011, 0.153811
2023/06/30 10:03:22.394, True, 0.994, 0.155108
2023/06/30 10:03:22.898, True, 0.995, 0.156405
2023/06/30 10:03:23.394, True, 1.011, 0.155261
2023/06/30 10:03:23.898, True, 0.995, 0.155871
2023/06/30 10:03:24.402, True, 0.995, 0.155032
2023/06/30 10:03:24.898, True, 1.011, 0.157168
2023/06/30 10:03:25.402, True, 0.995, 0.157244
2023/06/30 10:03:25.906, True, 0.996, 0.153353
2023/06/30 10:03:26.402, True, 0.673, 0.155108
2023/06/30 10:03:26.906, True, 0.995, 0.156634
2023/06/30 10:03:27.410, True, 0.995, 0.153964
2023/06/30 10:03:27.914, True, 0.994, 0.157244
2023/06/30 10:03:28.410, True, 1.011, 0.155871
2023/06/30 10:03:28.914, True, 0.663, 0.155871
2023/06/30 10:03:29.418, True, 0.995, 0.156939
2023/06/30 10:03:29.914, True, 1.012, 0.156558
2023/06/30 10:03:30.418, True, 0.993, 0.155718
2023/06/30 10:03:30.922, True, 0.996, 0.154574
2023/06/30 10:03:31.418, True, 1.009, 0.157855
2023/06/30 10:03:31.922, True, 0.995, 0.155184
2023/06/30 10:03:32.426, True, 0.995, 0.155566
2023/06/30 10:03:32.922, True, 1.011, 0.156329
2023/06/30 10:03:33.426, True, 1.326, 0.156100
2023/06/30 10:03:33.930, True, 0.995, 0.156329
2023/06/30 10:03:34.426, True, 1.011, 0.155947
2023/06/30 10:03:34.930, True, 0.997, 0.156329
2023/06/30 10:03:35.434, True, 0.662, 0.157473
2023/06/30 10:03:35.930, True, 1.348, 0.155184
2023/06/30 10:03:36.434, True, 0.995, 0.157549
2023/06/30 10:03:36.938, True, 0.995, 0.157473
2023/06/30 10:03:37.434, True, 1.011, 0.155642
2023/06/30 10:03:37.938, True, 0.995, 0.154498
2023/06/30 10:03:38.434, True, 0.674, 0.156405
2023/06/30 10:03:38.938, True, 0.995, 0.154116
2023/06/30 10:03:39.442, True, 0.995, 0.153124
2023/06/30 10:03:39.938, True, 1.348, 0.157473
2023/06/30 10:03:40.442, True, 0.995, 0.154040
2023/06/30 10:03:40.946, True, 0.994, 0.154574
2023/06/30 10:03:41.442, True, 1.011, 0.155413
2023/06/30 10:03:41.946, True, 0.995, 0.155947
2023/06/30 10:03:42.450, True, 0.994, 0.155718
2023/06/30 10:03:42.946, True, 1.011, 0.155261
2023/06/30 10:03:43.450, True, 0.995, 0.155489
2023/06/30 10:03:43.954, True, 0.994, 0.156863
2023/06/30 10:03:44.450, True, 1.011, 0.154955
2023/06/30 10:03:44.954, True, 0.996, 0.155184
2023/06/30 10:03:45.450, True, 1.011, 0.156634
2023/06/30 10:03:45.954, True, 0.663, 0.155718
2023/06/30 10:03:46.458, True, 0.995, 0.153201
2023/06/30 10:03:46.954, True, 1.011, 0.154421
2023/06/30 10:03:47.458, True, 0.994, 0.157244
2023/06/30 10:03:47.962, True, 0.995, 0.154803
2023/06/30 10:03:48.458, True, 1.011, 0.155261
2023/06/30 10:03:48.963, True, 0.996, 0.156405
2023/06/30 10:03:49.466, True, 0.995, 0.156786
2023/06/30 10:03:49.970, True, 0.662, 0.156634
2023/06/30 10:03:50.466, True, 1.011, 0.155337
2023/06/30 10:03:50.970, True, 0.996, 0.155413
2023/06/30 10:03:51.474, True, 0.993, 0.157015
2023/06/30 10:03:51.970, True, 1.011, 0.155337
2023/06/30 10:03:52.475, True, 0.995, 0.152972
2023/06/30 10:03:52.978, True, 0.995, 0.154116
2023/06/30 10:03:53.475, True, 1.011, 0.156329
2023/06/30 10:03:53.978, True, 0.995, 0.155642
2023/06/30 10:03:54.483, True, 0.995, 0.154650
2023/06/30 10:03:54.978, True, 1.011, 0.154574
2023/06/30 10:03:55.482, True, 0.997, 0.154879
2023/06/30 10:03:55.986, True, 0.993, 0.155718
2023/06/30 10:03:56.482, True, 1.011, 0.154726
2023/06/30 10:03:56.986, True, 0.995, 0.156023
2023/06/30 10:03:57.490, True, 0.995, 0.156176
2023/06/30 10:03:57.987, True, 1.011, 0.155032
2023/06/30 10:03:58.490, True, 0.995, 0.156252
2023/06/30 10:03:58.994, True, 0.995, 0.155718
2023/06/30 10:03:59.498, True, 0.996, 0.153658
2023/06/30 10:03:59.995, True, 1.010, 0.154955
2023/06/30 10:04:00.499, True, 0.995, 0.155032
2023/06/30 10:04:01.002, True, 0.995, 0.155261
2023/06/30 10:04:01.499, True, 0.674, 0.156100
2023/06/30 10:04:02.002, True, 0.994, 0.155337
2023/06/30 10:04:02.498, True, 1.011, 0.153811
2023/06/30 10:04:03.002, True, 0.996, 0.155413
2023/06/30 10:04:03.507, True, 0.994, 0.156023
2023/06/30 10:04:04.002, True, 1.010, 0.155413
2023/06/30 10:04:04.507, True, 0.996, 0.153353
2023/06/30 10:04:05.010, True, 0.995, 0.158312
2023/06/30 10:04:05.507, True, 1.011, 0.155261
2023/06/30 10:04:06.010, True, 0.994, 0.155108
2023/06/30 10:04:06.514, True, 0.996, 0.154726
2023/06/30 10:04:07.019, True, 0.663, 0.155642
2023/06/30 10:04:07.515, True, 1.011, 0.154574
2023/06/30 10:04:08.018, True, 0.993, 0.153811
2023/06/30 10:04:08.523, True, 0.664, 0.151522
2023/06/30 10:04:09.018, True, 1.009, 0.155795
2023/06/30 10:04:09.522, True, 0.663, 0.156100
2023/06/30 10:04:10.027, True, 0.995, 0.153964
2023/06/30 10:04:10.523, True, 1.011, 0.153048
2023/06/30 10:04:11.027, True, 0.997, 0.155261
2023/06/30 10:04:11.531, True, 0.993, 0.155261
2023/06/30 10:04:12.027, True, 1.013, 0.157549
2023/06/30 10:04:12.530, True, 0.663, 0.156252
2023/06/30 10:04:13.035, True, 0.993, 0.156100